Date String (YYYY-MM-DD hh:mm:ss) UTC,Instrument flags,absolute air pressure of the measurement (hPa),sample flow rate (lpm),inlet stack bypass flow (lpm),air temperature of the measurement (°C),ambient temperature measured by the external sensor (°C),aerosol sample conditioner tube jacket temperature (°C),OPC LED temperature (°C),internal box temperature (°C),relative humidity of the measurement (%),span deviation,mass concentration of particles derived from Lorenz-Mie calculation of OPC scattering (μg/m³),mass concentration of particles derived from Lorenz-Mie calculation of OPC scattering (μg/m³),mass concentration of particles derived from Lorenz-Mie calculation of OPC scattering (μg/m³)
DateTimeUTC,F1_M11,P_M11,Q1_M11,Q2_M11,T1_M11,T2_M11,T3_M11,T4_M11,T5_M11,U1_M11,ZSPAN_M11,X0_M11,X2_M11,X1_M11
2024-06-02 21:00:00,SystemResetWarning,0822.1,4.99,000.00,029.3,028.9,000.0,037.3,031.2,019.7,0000.0,0013.62,0004.61,0003.64
2024-06-02 21:01:00,SystemResetWarning,0822.1,4.99,000.00,029.4,029.0,000.0,037.3,031.3,018.0,0000.0,0013.24,0004.58,0003.62
2024-06-02 21:02:00,SystemResetWarning,0822.1,4.99,000.00,029.4,028.3,000.0,037.4,030.9,019.8,0000.0,0013.63,0004.54,0003.61
2024-06-02 21:03:00,SystemResetWarning,0822.0,5.00,000.00,029.0,026.0,000.0,037.5,029.7,020.7,0000.0,0013.54,0004.63,0003.64
2024-06-02 21:04:00,SystemResetWarning,0822.0,5.01,000.00,028.7,025.4,000.0,037.5,029.4,019.8,0000.0,0014.33,0004.66,0003.67
2024-06-02 21:05:00,SystemResetWarning,0822.0,5.02,000.00,028.6,026.0,000.0,037.4,029.6,019.9,0000.0,0014.77,0004.71,0003.71
2024-06-02 21:06:00,SystemResetWarning,0822.1,4.99,000.00,028.6,026.5,000.0,037.3,029.9,020.2,0000.0,0015.27,0004.76,0003.74
2024-06-02 21:07:00,SystemResetWarning,0822.1,4.99,000.00,028.7,026.9,000.0,037.2,030.2,019.7,0000.0,0015.47,0004.83,0003.77
2024-06-02 21:08:00,SystemResetWarning,0822.2,5.00,000.00,028.7,027.3,000.0,037.1,030.4,020.2,0000.0,0015.07,0004.81,0003.79
2024-06-02 21:09:00,SystemResetWarning,0822.2,5.01,000.00,028.8,027.7,000.0,037.1,030.5,021.3,0000.0,0014.52,0004.80,0003.80
2024-06-02 21:10:00,SystemResetWarning,0822.2,4.99,000.00,028.9,028.0,000.0,037.1,030.7,021.1,0000.0,0016.33,0004.81,0003.81
2024-06-02 21:11:00,SystemResetWarning,0822.3,5.00,000.00,029.0,028.3,000.0,037.2,030.8,020.1,0000.0,0017.03,0004.84,0003.81
2024-06-02 21:12:00,SystemResetWarning,0822.3,4.99,000.00,029.1,028.5,000.0,037.2,030.9,020.1,0000.0,0017.47,0004.87,0003.83
2024-06-02 21:13:00,SystemResetWarning,0822.2,4.99,000.00,029.1,028.7,000.0,037.2,031.0,019.0,0000.0,0018.30,0004.92,0003.86
2024-06-02 21:14:00,SystemResetWarning,0822.3,5.00,000.00,029.2,028.9,000.0,037.3,031.1,019.1,0000.0,0018.45,0004.90,0003.87
2024-06-02 21:15:00,SystemResetWarning,0822.2,5.00,000.00,029.3,029.0,000.0,037.3,031.2,019.1,0000.0,0018.33,0004.93,0003.88
2024-06-02 21:16:00,SystemResetWarning,0822.2,5.01,000.00,029.4,029.1,000.0,037.3,031.3,018.9,0000.0,0018.21,0004.95,0003.87
2024-06-02 21:17:00,SystemResetWarning,0822.2,4.98,000.00,029.4,028.3,000.0,037.4,030.9,018.5,0000.0,0017.83,0004.93,0003.87
2024-06-02 21:18:00,SystemResetWarning,0822.1,5.00,000.00,029.0,026.0,000.0,037.5,029.7,019.7,0000.0,0018.12,0004.92,0003.86
2024-06-02 21:19:00,SystemResetWarning,0822.1,5.02,000.00,028.7,025.5,000.0,037.5,029.5,019.6,0000.0,0019.48,0005.03,0003.86
2024-06-02 21:20:00,SystemResetWarning,0822.1,5.00,000.00,028.6,026.1,000.0,037.4,029.7,021.6,0000.0,0019.63,0005.08,0003.86
2024-06-02 21:21:00,SystemResetWarning,0822.1,5.00,000.00,028.7,026.6,000.0,037.3,030.0,020.2,0000.0,0019.56,0005.14,0003.86
2024-06-02 21:22:00,SystemResetWarning,0822.2,5.01,000.00,028.7,027.0,000.0,037.2,030.2,019.7,0000.0,0020.16,0005.16,0003.86
2024-06-02 21:23:00,SystemResetWarning,0822.1,5.00,000.00,028.8,027.4,000.0,037.2,030.4,019.8,0000.0,0020.89,0005.11,0003.85
2024-06-02 21:24:00,SystemResetWarning,0822.1,4.99,000.00,028.9,027.8,000.0,037.2,030.6,018.9,0000.0,0021.27,0005.10,0003.85
2024-06-02 21:25:00,SystemResetWarning,0822.1,5.00,000.00,028.9,028.1,000.0,037.2,030.7,019.0,0000.0,0021.13,0005.12,0003.86
2024-06-02 21:26:00,SystemResetWarning,0822.1,5.01,000.00,029.0,028.3,000.0,037.2,030.9,019.7,0000.0,0020.46,0005.10,0003.86
2024-06-02 21:27:00,SystemResetWarning,0822.1,5.00,000.00,029.1,028.5,000.0,037.2,031.0,019.6,0000.0,0019.97,0005.08,0003.86
2024-06-02 21:28:00,SystemResetWarning,0822.1,5.00,000.00,029.2,028.7,000.0,037.3,031.1,019.2,0000.0,0019.22,0005.09,0003.87
2024-06-02 21:29:00,SystemResetWarning,0822.1,5.00,000.00,029.3,028.9,000.0,037.3,031.2,018.7,0000.0,0018.86,0005.12,0003.87
2024-06-02 21:30:00,SystemResetWarning,0822.2,4.99,000.00,029.4,029.0,000.0,037.4,031.3,019.6,0000.0,0017.48,0004.99,0003.86
2024-06-02 21:31:00,SystemResetWarning,0822.3,4.99,000.00,029.5,028.9,000.0,037.4,031.2,020.0,0000.0,0018.05,0004.92,0003.85
2024-06-02 21:32:00,SystemResetWarning,0822.2,5.00,000.00,029.2,026.8,000.0,037.5,030.2,019.9,0000.0,0017.45,0004.84,0003.84
2024-06-02 21:33:00,SystemResetWarning,0822.1,5.00,000.00,028.8,025.4,000.0,037.5,029.4,019.9,0000.0,0016.21,0004.85,0003.84
2024-06-02 21:34:00,SystemResetWarning,0822.2,5.02,000.00,028.6,025.9,000.0,037.4,029.6,019.5,0000.0,0015.72,0004.87,0003.84
2024-06-02 21:35:00,SystemResetWarning,0822.3,5.00,000.00,028.6,026.4,000.0,037.3,029.9,019.9,0000.0,0015.32,0004.89,0003.85
2024-06-02 21:36:00,SystemResetWarning,0822.4,5.00,000.00,028.7,026.8,000.0,037.2,030.2,019.6,0000.0,0014.33,0004.91,0003.84
2024-06-02 21:37:00,SystemResetWarning,0822.4,4.99,000.00,028.7,027.3,000.0,037.2,030.4,019.0,0000.0,0014.79,0004.90,0003.83
2024-06-02 21:38:00,SystemResetWarning,0822.4,4.99,000.00,028.8,027.7,000.0,037.2,030.5,019.9,0000.0,0014.32,0004.93,0003.82
2024-06-02 21:39:00,SystemResetWarning,0822.4,5.00,000.00,028.9,028.0,000.0,037.2,030.7,020.3,0000.0,0014.11,0004.92,0003.81
2024-06-02 21:40:00,SystemResetWarning,0822.4,5.01,000.00,029.0,028.3,000.0,037.2,030.8,020.8,0000.0,0014.55,0004.88,0003.79
2024-06-02 21:41:00,SystemResetWarning,0822.3,4.99,000.00,029.1,028.5,000.0,037.2,030.9,019.1,0000.0,0015.35,0004.89,0003.79
2024-06-02 21:42:00,SystemResetWarning,0822.4,5.00,000.00,029.2,028.7,000.0,037.2,031.1,018.2,0000.0,0015.44,0004.89,0003.78
2024-06-02 21:43:00,SystemResetWarning,0822.4,5.01,000.00,029.3,028.8,000.0,037.3,031.2,017.6,0000.0,0015.16,0004.86,0003.75
2024-06-02 21:44:00,SystemResetWarning,0822.3,5.00,000.00,029.3,029.0,000.0,037.3,031.2,017.6,0000.0,0014.70,0004.78,0003.73
2024-06-02 21:45:00,SystemResetWarning,0822.3,5.00,000.00,029.4,029.1,000.0,037.4,031.3,018.1,0000.0,0016.16,0004.77,0003.72
2024-06-02 21:46:00,SystemResetWarning,0822.3,4.99,000.00,029.5,028.9,000.0,037.4,031.2,018.0,0000.0,0016.16,0004.74,0003.69
2024-06-02 21:47:00,SystemResetWarning,0822.2,5.00,000.00,029.2,026.7,000.0,037.5,030.1,018.6,0000.0,0015.75,0004.67,0003.66
2024-06-02 21:48:00,SystemResetWarning,0822.1,5.01,000.00,028.8,025.4,000.0,037.5,029.4,018.9,0000.0,0015.79,0004.64,0003.63
2024-06-02 21:49:00,SystemResetWarning,0822.1,5.00,000.00,028.7,025.9,000.0,037.5,029.6,018.5,0000.0,0016.98,0004.58,0003.61
2024-06-02 21:50:00,SystemResetWarning,0822.2,4.99,000.00,028.6,026.4,000.0,037.3,029.9,018.6,0000.0,0017.91,0004.57,0003.59
2024-06-02 21:51:00,SystemResetWarning,0822.2,5.00,000.00,028.7,026.8,000.0,037.3,030.1,018.0,0000.0,0017.45,0004.52,0003.57
2024-06-02 21:52:00,SystemResetWarning,0822.2,5.00,000.00,028.7,027.3,000.0,037.2,030.3,018.1,0000.0,0016.99,0004.52,0003.55
2024-06-02 21:53:00,SystemResetWarning,0822.3,5.00,000.00,028.8,027.6,000.0,037.2,030.5,018.3,0000.0,0016.37,0004.50,0003.54
2024-06-02 21:54:00,SystemResetWarning,0822.3,5.00,000.00,028.9,027.9,000.0,037.2,030.7,018.7,0000.0,0016.25,0004.53,0003.54
2024-06-02 21:55:00,SystemResetWarning,0822.3,5.00,000.00,029.0,028.2,000.0,037.2,030.8,017.9,0000.0,0016.79,0004.55,0003.54
2024-06-02 21:56:00,SystemResetWarning,0822.4,5.01,000.00,029.1,028.4,000.0,037.2,030.9,018.6,0000.0,0015.70,0004.54,0003.52
2024-06-02 21:57:00,SystemResetWarning,0822.4,5.01,000.00,029.1,028.6,000.0,037.3,031.0,017.8,0000.0,0015.42,0004.54,0003.52
2024-06-02 21:58:00,SystemResetWarning,0822.4,5.00,000.00,029.2,028.8,000.0,037.3,031.1,018.1,0000.0,0015.64,0004.53,0003.52
2024-06-02 21:59:00,SystemResetWarning,0822.4,4.99,000.00,029.3,029.0,000.0,037.3,031.2,018.9,0000.0,0015.59,0004.53,0003.52
